Kingsville Naval Air Station Kingsville US
ICAO: KNQI
IATA: NQI
Category: Medium
Scheduled Services: No

Elevation: 50 ft
TransAlt. 18000 ft.

Airport Communications:
APP:119.9
ATIS:27.62
CLNC DEL:32.84
DEP:26.68
GND:35.24
BASE OPS:27.48
PMSV METRO:34.46
TWR:124.1

KNQI Zoom In..

If you have problems with the map follow the link
https://www.worldairports.se/pages/airport.php?
ICAO=KNQI

Runways:

(A) RW 13L length 8000 ft width 200 ft
---- / hdg 127

(B) RW 13R length 8000 ft width 200 ft
ILS 110.90 / hdg 127

(C) RW 17L length 8000 ft width 200 ft
---- / hdg 172

(D) RW 17R length 8000 ft width 200 ft
---- / hdg 172

(E) RW 31L length 8000 ft width 200 ft
---- / hdg 307

(F) RW 31R length 8000 ft width 200 ft
---- / hdg 307

(G) RW 35L length 8000 ft width 200 ft
---- / hdg 352

(H) RW 35R length 8000 ft width 200 ft
---- / hdg 352

Location; KNQI
Day. 25 / Time. 06.56 Zulu
* Altimeter: 30.11
* Temperature: 09° c. 48.2°f.
* Wind from: 080° Speed 04 kn.
Dewpoint: 08° c.
Visibility: 10 Statute Miles.
Clouds: Clear (automated report).

KNQI 250656Z AUTO 08004KT 10SM CLR 09/08 A3011 RMK AO2 SLP192 T00890078 $


Wind From 080°
Speed 04 kn.

 
 
jpsmedia worldairports.se 2020   terms of use